MEASAT 3D

Last updated on Tue Oct 15 2024 00:02:42 GMT+0000 (Coordinated Universal Time)

1 52904U 22067B 24288.57271817 -.00000244 00000+0 00000+0 0 9998 2 52904 0.0323 23.4616 0001922 231.4639 66.3902 1.00269958 8525
UTC large
Height (km)
Speed (km/s)
/
Latitude / Longitude
Inclination (degrees)
Orbital Period (minutes)
Azimuth
Elevation
Range (km)
Doppler Factor

Next 0 passes for location: London (51.5072 / 0.1276)

Sorry there are no passes over London.